Weather History for West Plains, MO

Change the Weather History Date:

Tuesday, April 9, 2013

  Actual Average Record
Temperature  
Mean Temperature 70 °F 56 °F  
Max Temperature 79 °F 68 °F 87 °F (2011)
Min Temperature 60 °F 43 °F 23 °F (2007)
Degree Days  
Heating Degree Days 0 10  
Month to date heating degree days 96 100  
Since 1 July heating degree days 4142 4110  
Cooling Degree Days 5 1  
Month to date cooling degree days 7 4  
Year to date cooling degree days 7 8  
Growing Degree Days 19 (Base 50)    
Moisture  
Dew Point 58 °F    
Average Humidity 69    
Maximum Humidity 90    
Minimum Humidity 47    
Precipitation  
Precipitation 0.00 in 0.13 in 0.91 in (1969)
Month to date precipitation 0.08 1.18  
Year to date precipitation 11.15 11.03  
Sea Level Pressure  
Sea Level Pressure 29.84 in    
Wind  
Wind Speed 12 mph (SSE)    
Max Wind Speed 22 mph    
Max Gust Speed 28 mph    
Visibility 10 miles    
Events      
T = Trace of Precipitation, MM = Missing Value Source: NWS Daily Summary

Daily Weather History Graph

Daily Weather History Graph

Search for Another Location

Airport:

Trip Planner

Search our weather history database for the weather conditions in past years. The results will help you decide how hot, cold, wet, or windy it might be!

Date:

Astronomy

Apr. 09, 2013 Rise Set
Actual Time 6:41 AM CDT 7:37 PM CDT
Civil Twilight 6:15 AM CDT 8:03 PM CDT
Nautical Twilight 5:43 AM CDT 8:35 PM CDT
Astronomical Twilight 5:11 AM CDT 9:07 PM CDT
Moon 6:03 AM CDT (4/9) 7:13 PM CDT (4/9)
Length of Visible Light 13h 48m
Length of Day
12h 55m
Waning Crescent, 1% of the Moon is Illuminated
Apr 9
Waning Crescent
Apr 10
New
Apr 18
First Quarter
Apr 25
Full
May 2
Last Quarter

Hourly Weather History & Observations

Time (CDT) Temp. Dew Point Humidity Pressure Visibility Wind Dir Wind Speed Gust Speed Precip Events Conditions
12:53 AM 64.0 °F 55.9 °F 75% 29.81 in 10.0 mi SSE 6.9 mph - N/A   Clear
1:53 AM 63.0 °F 55.0 °F 75% 29.82 in 10.0 mi SSE 5.8 mph - N/A   Clear
2:53 AM 62.1 °F 55.9 °F 80% 29.81 in 10.0 mi South 6.9 mph - N/A   Clear
3:53 AM 61.0 °F 55.9 °F 83% 29.80 in 10.0 mi SSE 8.1 mph - N/A   Clear
4:53 AM 60.1 °F 55.9 °F 86% 29.81 in 10.0 mi SSE 8.1 mph - N/A   Clear
5:53 AM 60.1 °F 55.9 °F 86% 29.82 in 10.0 mi SSE 10.4 mph - N/A   Clear
6:53 AM 61.0 °F 57.0 °F 87% 29.85 in 10.0 mi SSE 10.4 mph - N/A   Scattered Clouds
7:00 AM 60.8 °F 57.2 °F 88% 29.87 in 10.0 mi South 11.5 mph - N/A   Mostly Cloudy
7:19 AM 60.8 °F 57.2 °F 88% 29.87 in 10.0 mi SSE 10.4 mph - N/A   Overcast
7:53 AM 62.1 °F 57.0 °F 84% 29.85 in 10.0 mi SSE 10.4 mph - N/A   Scattered Clouds
8:44 AM 62.6 °F 57.2 °F 82% 29.89 in 10.0 mi SSE 13.8 mph - N/A   Overcast
8:53 AM 64.0 °F 57.9 °F 80% 29.86 in 10.0 mi SSE 12.7 mph - N/A   Overcast
9:04 AM 64.4 °F 57.2 °F 77% 29.89 in 10.0 mi SSE 10.4 mph - N/A   Overcast
9:53 AM 64.0 °F 59.0 °F 84% 29.88 in 10.0 mi SSE 12.7 mph 18.4 mph N/A   Overcast
10:17 AM 64.4 °F 59.0 °F 83% 29.91 in 10.0 mi SE 10.4 mph 18.4 mph N/A   Overcast
10:53 AM 64.0 °F 59.0 °F 84% 29.91 in 10.0 mi SSE 12.7 mph - N/A   Overcast
11:53 AM 66.0 °F 59.0 °F 78% 29.91 in 10.0 mi South 10.4 mph - N/A   Overcast
12:53 PM 69.1 °F 59.0 °F 70% 29.88 in 10.0 mi South 13.8 mph 21.9 mph N/A   Overcast
1:13 PM 69.8 °F 59.0 °F 68% 29.90 in 10.0 mi South 15.0 mph 20.7 mph N/A   Overcast
1:53 PM 73.9 °F 60.1 °F 62% 29.85 in 10.0 mi SSE 16.1 mph 20.7 mph N/A   Mostly Cloudy
2:53 PM 77.0 °F 60.1 °F 56% 29.83 in 10.0 mi South 15.0 mph 20.7 mph N/A   Scattered Clouds
3:53 PM 78.1 °F 57.9 °F 50% 29.81 in 10.0 mi South 18.4 mph 25.3 mph N/A   Partly Cloudy
4:53 PM 77.0 °F 57.0 °F 50% 29.81 in 10.0 mi South 17.3 mph 23.0 mph N/A   Overcast
5:53 PM 77.0 °F 55.9 °F 48% 29.81 in 10.0 mi South 13.8 mph 21.9 mph N/A   Overcast
6:53 PM 75.9 °F 55.9 °F 50% 29.80 in 10.0 mi SSE 12.7 mph 20.7 mph N/A   Clear
7:53 PM 75.0 °F 57.9 °F 55% 29.81 in 10.0 mi South 12.7 mph 20.7 mph N/A   Partly Cloudy
8:53 PM 73.9 °F 61.0 °F 64% 29.82 in 10.0 mi SSE 13.8 mph 20.7 mph N/A   Clear
9:53 PM 73.0 °F 61.0 °F 66% 29.83 in 10.0 mi SSE 6.9 mph - N/A   Mostly Cloudy
10:53 PM 73.0 °F 62.1 °F 68% 29.81 in 10.0 mi SSE 9.2 mph - N/A   Overcast
11:53 PM 73.0 °F 63.0 °F 71% 29.81 in 10.0 mi SSE 11.5 mph - N/A   Overcast